Location: Songkhla
(7.2000°N, 100.6000°E)
Time: 20:27:17
(UTC+07:00)

ISS - Visible Passes

Search period start: 16 December 2018 00:00
Search period end: 26 December 2018 00:00
Orbit: 401 x 408 km, 51.6° (Epoch: 17 December)

Date Brightness Start Highest point End Pass type
(mag) Time Alt. Az. Time Alt. Az. Time Alt. Az.
16 Dec -3.8 18:39:07 10° NNW 18:42:17 53° NE 18:45:27 10° SE visible
17 Dec -0.3 19:24:57 10° W 19:26:23 12° SW 19:27:50 10° SSW visible
18 Dec -1.7 18:31:20 10° WNW 18:34:16 32° SW 18:37:12 10° S visible
20 Dec -0.1 05:18:14 10° SE 05:19:15 11° SE 05:20:16 10° ESE visible
21 Dec -3.8 06:00:04 10° SW 06:03:18 63° NW 06:06:33 10° NNE visible
22 Dec -2.4 05:08:01 10° SSW 05:11:08 40° SE 05:14:14 10° NE visible
23 Dec -0.7 04:19:17 15° ESE 04:19:17 15° ESE 04:20:59 10° E visible
23 Dec -2.2 05:53:05 10° W 05:55:14 16° NW 05:57:22 10° N visible
24 Dec -1.4 05:05:40 13° NNE 05:05:40 13° NNE 05:06:06 10° NNE visible
